Weather History for Sharm El Sheikh, Egypt

Change the Weather History Date:

Tuesday, November 12, 2013

  Actual Average Record
Temperature  
Mean Temperature 81 °F -  
Max Temperature 93 °F - - ()
Min Temperature 69 °F - - ()
Cooling Degree Days 16    
Growing Degree Days 31 (Base 50)    
Moisture  
Dew Point 51 °F    
Average Humidity 39    
Maximum Humidity 60    
Minimum Humidity 24    
Precipitation  
Precipitation 0.00 in - - ()
Sea Level Pressure  
Sea Level Pressure 29.89 in    
Wind  
Wind Speed 4 mph ()    
Max Wind Speed 7 mph    
Max Gust Speed -    
Visibility 6.2 miles    
Events      
T = Trace of Precipitation, MM = Missing Value Source: Averaged Metar Reports

Daily Weather History Graph

Daily Weather History Graph

Search for Another Location

Airport:

Trip Planner

Search our weather history database for the weather conditions in past years. The results will help you decide how hot, cold, wet, or windy it might be!

Date:

Astronomy

Nov. 12, 2013 Rise Set
Actual Time 6:01 AM EET 4:51 PM EET
Civil Twilight 5:36 AM EET 5:15 PM EET
Nautical Twilight 5:08 AM EET 5:44 PM EET
Astronomical Twilight 4:40 AM EET 6:11 PM EET
Moon 1:30 PM EET (11/12) 12:55 AM EET (11/12)
Length of Visible Light 11h 38m
Length of Day
10h 49m
Waxing Gibbous, 73% of the Moon is Illuminated
Nov 12
Waxing Gibbous
Nov 17
Full
Nov 25
Last Quarter
Dec 3
New
Dec 9
First Quarter

Hourly Weather History & Observations

Time (EET) Temp. Heat Index Dew Point Humidity Pressure Visibility Wind Dir Wind Speed Gust Speed Precip Events Conditions
12:00 AM 69.8 °F - 55.4 °F 60% 29.89 in - Variable 2.3 mph - N/A   Clear
1:00 AM 69.8 °F - 55.4 °F 60% 29.89 in - North 3.5 mph - N/A   Clear
2:00 AM 71.6 °F - 57.2 °F 60% 29.89 in - North 4.6 mph - N/A   Clear
3:00 AM 71.6 °F - 55.4 °F 57% 29.86 in - NNW 4.6 mph - N/A   Clear
4:00 AM 71.6 °F - 53.6 °F 53% 29.89 in - North 4.6 mph - N/A   Clear
5:00 AM 69.8 °F - 51.8 °F 53% 29.89 in - North 4.6 mph - N/A   Clear
6:00 AM 73.4 °F - 51.8 °F 47% 29.89 in - NNW 6.9 mph - N/A   Clear
7:00 AM 73.4 °F - 55.4 °F 53% 29.92 in - NNW 6.9 mph - N/A   Clear
8:00 AM 80.6 °F 80.3 °F 53.6 °F 39% 29.92 in - North 5.8 mph - N/A   Clear
9:00 AM 84.2 °F 83.5 °F 57.2 °F 40% 29.95 in - NNE 6.9 mph - N/A   Clear
10:00 AM 87.8 °F - 51.8 °F 29% 29.92 in - NNE 6.9 mph - N/A   Clear
11:00 AM 89.6 °F - 51.8 °F 27% 29.92 in - NNE 5.8 mph - N/A   Clear
12:00 PM 91.4 °F - 51.8 °F 26% 29.89 in 6.2 mi ENE 4.6 mph - N/A   Partly Cloudy
1:00 PM 93.2 °F - 51.8 °F 24% 29.86 in 6.2 mi East 3.5 mph - N/A   Partly Cloudy
2:00 PM 89.6 °F 87.3 °F 53.6 °F 29% 29.86 in 6.2 mi SSE 5.8 mph - N/A   Partly Cloudy
3:00 PM 87.8 °F 85.7 °F 53.6 °F 31% 29.86 in 6.2 mi South 6.9 mph - N/A   Partly Cloudy
4:00 PM 87.8 °F 85.7 °F 53.6 °F 31% 29.86 in - Variable 2.3 mph - N/A   Clear
5:00 PM 82.4 °F - 46.4 °F 28% 29.86 in - Variable 3.5 mph - N/A   Clear
6:00 PM 82.4 °F - 44.6 °F 26% 29.86 in - SW 3.5 mph - N/A   Clear
7:00 PM 77.0 °F - 46.4 °F 34% 29.86 in - West 2.3 mph - N/A   Clear
8:00 PM 78.8 °F - 42.8 °F 28% 29.86 in - WNW 5.8 mph - N/A   Clear
9:00 PM 78.8 °F - 42.8 °F 28% 29.89 in - WNW 4.6 mph - N/A   Clear
10:00 PM 75.2 °F - 46.4 °F 36% 29.89 in - NW 3.5 mph - N/A   Clear
11:00 PM 75.2 °F - 46.4 °F 36% 29.89 in - NNW 6.9 mph - N/A   Clear